Terminal Aerodrome Forecast
Issued by NWS Mt. Holly, NJ

Home | Current Version | Previous Version | Text Only | Print | Product List | Glossary On
Versions: 1 2 3 4 5 6 7 8 9 10 11 12 13 14 15 16 17 18 19 20 21 22 23 24 25 26 27 28 29 30 31 32 33 34 35 36 37 38 39 40 41 42 43 44
000
FTAK31 PANC 240530
TAFABE
TAF
PABE 240530Z 2406/2506 15014KT P6SM -RA BKN015 OVC025
     FM240700 18008KT P6SM -RA SCT008 OVC015
     FM241100 20012KT 6SM -RA BR BKN008
     FM241600 22018G25KT P6SM -SHRA SCT015 BKN025=

USA.gov is the U.S. government's official web portal to all federal, state and local government web resources and services.